Wind_Speed
34 34 40 41 48 54 54 57 55 52 50 44 44 41 39 38 39 32 34 33 34 32
36 37 38 40 44 50 54 52 52 54 53 55 48 50 46 48 48 42 38 36 37 36
40 39 38 39 39 45 49 50 54 53 51 56 52 47 46 47 50 47 43 44 43 42
40 40 43 42 41 42 41 48 53 55 52 49 52 51 52 50 47 51 53 51 51 48
36 40 43 41 40 41 41 38 43 53 50 52 53 52 54 54 53 51 54 55 54 55
30 36 42 40 41 42 43 41 39 46 52 54 54 55 57 58 56 56 56 54 51 52
34 34 33 39 41 42 44 41 40 43 51 54 57 58 55 59 59 60 61 61 57 53
35 36 34 35 38 39 42 45 45 46 47 48 50 52 50 49 50 50 51 52 53 54
36 37 41 42 41 40 42 44 45 48 48 48 52 53 52 51 49 49 49 50 50 50
36 37 40 41 41 45 47 45 48 50 48 52 51 52 53 54 52 50 49 48 47 46
34 37 38 38 42 44 43 43 44 46 46 44 46 47 46 47 47 48 52 51 49 46
33 35 36 38 40 40 40 39 41 41 40 42 45 46 47 44 45 44 46 49 50 49
15 35 35 37 38 38 37 37 35 38 40 41 42 44 43 41 41 42 42 44 47 50
16 17 31 33 33 32 35 36 37 37 39 38 38 39 41 38 36 37 42 44 40 35
Wind_Direction
206 212 212 212 212 207 209 209 209 214 218 229 226 227 224 227 233 234 235 241 238 239
209 210 213 219 219 219 219 217 219 221 224 225 228 229 230 234 234 235 242 239 243 245
210 209 216 218 223 225 224 225 222 223 226 224 230 228 230 236 237 238 244 245 246 255
213 215 212 217 223 224 227 227 226 227 228 231 230 234 237 241 244 241 242 247 246 252
217 217 214 220 221 223 229 228 228 227 229 235 239 238 236 243 246 243 245 248 250 253
229 219 218 220 225 226 229 234 234 228 224 228 232 238 241 244 246 246 245 245 245 249
237 236 230 221 224 228 226 231 233 229 228 229 236 241 244 244 246 248 249 249 246 249
230 236 238 234 230 232 228 230 231 233 235 233 233 234 237 240 240 243 246 248 250 250
232 232 234 233 226 228 229 231 227 230 230 233 231 232 235 235 237 240 243 245 248 250
234 236 236 234 232 235 233 230 231 231 232 233 236 242 241 242 241 243 245 247 250 252
239 238 240 238 236 236 234 232 235 236 238 238 242 242 243 244 244 245 249 251 252 254
246 241 241 240 241 240 236 237 238 240 240 241 246 244 246 246 249 251 248 251 254 256
266 248 245 240 238 239 239 239 238 236 236 238 239 243 246 246 244 246 246 250 252 252
285 243 234 236 232 233 229 229 231 236 240 242 242 244 246 245 243 244 246 246 246 250
Height
1452 1457 1461 1465 1470 1475 1479 1483 1488 1491 1497 1501 1506 1509 1514 1518 1520 1523 1525 1529 1530 1532
1444 1449 1455 1460 1465 1469 1474 1478 1483 1486 1490 1494 1498 1502 1507 1510 1512 1516 1518 1521 1525 1524
1439 1443 1448 1453 1457 1461 1466 1472 1476 1480 1483 1488 1491 1495 1500 1501 1505 1508 1510 1512 1515 1516
1432 1437 1442 1445 1448 1453 1458 1462 1467 1472 1476 1480 1484 1488 1490 1492 1496 1499 1501 1503 1505 1506
1428 1431 1434 1437 1441 1446 1449 1454 1459 1464 1468 1471 1474 1478 1480 1483 1486 1489 1490 1492 1496 1496
1422 1425 1426 1431 1435 1440 1443 1446 1450 1453 1456 1458 1462 1466 1470 1473 1476 1478 1479 1481 1483 1484
1415 1417 1421 1424 1427 1431 1435 1438 1440 1442 1446 1449 1452 1455 1458 1460 1462 1464 1466 1469 1472 1473
1413 1414 1416 1418 1420 1423 1427 1429 1432 1435 1437 1441 1444 1444 1447 1450 1453 1455 1457 1459 1460 1461
1408 1409 1408 1410 1414 1417 1417 1419 1425 1426 1428 1430 1431 1434 1437 1442 1444 1446 1448 1447 1449 1450
1401 1402 1403 1405 1407 1406 1408 1413 1413 1415 1417 1417 1419 1420 1425 1430 1434 1436 1436 1437 1438 1439
1394 1395 1397 1399 1398 1400 1402 1405 1406 1408 1411 1414 1414 1416 1418 1420 1424 1425 1426 1427 1429 1429
1385 1386 1389 1390 1391 1392 1395 1397 1399 1402 1404 1405 1407 1406 1405 1409 1411 1414 1415 1414 1415 1415
1377 1379 1376 1378 1380 1384 1386 1389 1392 1391 1391 1392 1394 1393 1396 1399 1400 1401 1402 1402 1402 1402
1371 1369 1369 1370 1371 1374 1375 1376 1379 1382 1384 1386 1387 1387 1389 1390 1391 1390 1389 1388 1389 1390